Flag for U.S.A. Weather past 2 weeks in Evansville, Indiana, U.S.A.

Now
79 °F

Clear.


Feels Like: 82 °F
Forecast: 71 / 82 °F
Wind: 7 mph from Southwest

Location: Evansville Regional Airport

Current Time: Sep 2, 2014 at 1:18:06 AM

Latest Report: Sep 2, 2014 at 12:54 AM


Visibility: 10 mi

Pressure: 29.95 "Hg

Humidity: 79%

Dew point: 72 °F

Location of EvansvilleLocation

Historic Weather in Evansville — Graph

°F

Evansville temperature yesterday

Maximum temperature yesterday: 84 °F (at 11:54 AM)
Minimum temperature yesterday: 74 °F (at 12:54 AM)
Average temperature yesterday: 79 °F

Past Weeks' High & Low Weather Summary

 TemperatureHumidityPressure
High95 °F (Aug 27, 3:54 PM)97% (Aug 19, 6:01 AM)30.11 "Hg (Aug 19, 6:01 AM)
Low67 °F (Aug 19, 6:01 AM)39% (Aug 29, 4:54 PM)29.78 "Hg (Aug 19, 5:54 PM)
Average80 °F77%29.97 "Hg
* Reported Aug 17 11:54 PM — Sep 1 11:54 PM, Evansville, Weather by CustomWeather, © 2014

Note: Actual official high and low records may vary slightly from our data, if they occured in-between our weather recording intervals... More about our weather records

Advertising

Evansville weather history for previous 24 hours

 ConditionsComfort  
Time TempWeatherWind HumidityBarometerVisibility
11:54 PM
Sep 1
78 °FPassing clouds.7 mph82%29.92 "Hg10 mi
10:54 PM78 °FPassing clouds.5 mph82%29.94 "Hg10 mi
9:54 PM78 °FPassing clouds.3 mph84%29.95 "Hg10 mi
8:54 PM77 °FClear.No wind85%29.95 "Hg10 mi
7:54 PM79 °FClear.7 mph79%29.93 "Hg10 mi
6:54 PM82 °FSunny.9 mph72%29.93 "Hg10 mi
5:54 PM83 °FSunny.14 mph70%29.93 "Hg10 mi
4:54 PM84 °FPartly sunny.13 mph67%29.92 "Hg10 mi
3:54 PM83 °FMostly cloudy.7 mph70%29.92 "Hg10 mi
2:54 PM84 °FPassing clouds.21 mph67%29.90 "Hg10 mi
1:54 PM84 °FPassing clouds.21 mph65%29.90 "Hg10 mi
12:54 PM83 °FPassing clouds.17 mph68%29.89 "Hg10 mi
11:54 AM84 °FScattered clouds.24 mph67%29.92 "Hg10 mi
10:54 AM82 °FScattered clouds.18 mph74%29.93 "Hg10 mi
9:54 AM78 °FPassing clouds.15 mph82%29.96 "Hg10 mi
8:54 AM74 °FScattered clouds.13 mph91%29.96 "Hg10 mi
8:01 AM75 °FRain. Fog.20 mph90%29.99 "Hg3 mi
6:54 AM76 °FPartly sunny.10 mph88%29.97 "Hg10 mi
6:02 AM75 °FPartly cloudy.10 mph90%29.98 "Hg10 mi
4:54 AM75 °FPassing clouds.12 mph90%29.95 "Hg10 mi
3:54 AM76 °FOvercast.13 mph88%29.96 "Hg10 mi
2:54 AM74 °FPassing clouds.7 mph91%29.96 "Hg10 mi
1:54 AM74 °FClear.5 mph91%29.96 "Hg10 mi
Weather by CustomWeather, © 2014

See weather overviewHow to use our weather pages